Date,TemperatureHighF,TemperatureAvgF,TemperatureLowF,DewpointHighF,DewpointAvgF,DewpointLowF,HumidityHigh,HumidityAvg,HumidityLow,PressureMaxIn,PressureMinIn,WindSpeedMaxMPH,WindSpeedAvgMPH,GustSpeedMaxMPH,PrecipitationSumIn
2013-1-1,10,4,0,5,0,-4,87,84,74,30.46,30.20,27,11,0,0.00
2013-1-2,12,5,0,7,0,-3,87,81,59,30.57,30.43,16,9,0,0.00
2013-1-3,19,9,0,0,-9,-100,84,52,33,30.68,30.55,20,-34,0,0.00
2013-1-4,40,28,16,7,-2,-14,47,30,11,30.56,30.01,9,3,0,0.00
2013-1-5,26,19,13,4,-2,-8,51,40,29,30.41,29.99,28,16,0,0.00
2013-1-6,35,26,18,0,-5,-16,42,26,15,30.38,29.91,35,20,0,0.00
2013-1-7,30,24,19,8,-3,-6,57,32,23,30.00,29.81,32,19,0,0.00
2013-1-8,24,19,16,17,13,2,91,79,48,30.37,29.79,46,23,0,0.00
2013-1-9,39,28,17,16,11,4,88,52,27,30.42,29.94,35,23,0,0.00
2013-1-10,35,30,23,17,6,-1,76,37,23,29.93,29.30,40,26,0,0.00
2013-1-11,25,10,-1,16,4,-4,89,76,61,29.82,29.16,41,17,0,0.00
2013-1-12,1,-3,-7,-3,-7,-11,84,83,82,30.27,29.83,19,7,0,0.00
2013-1-13,-1,-7,-10,-5,-11,-14,83,81,81,30.46,30.28,10,5,0,0.00
2013-1-14,1,-8,-13,-3,-20,-100,84,73,75,30.54,30.39,25,-70,0,0.00
2013-1-15,10,1,-10,7,-4,-16,89,80,73,30.71,30.52,27,19,0,0.01
2013-1-16,27,17,9,15,11,6,90,78,60,30.68,30.51,23,15,0,0.00
2013-1-17,35,25,18,10,8,6,66,49,32,30.57,30.34,24,12,0,0.00
2013-2-3,28,15,20,5,-31,-100,47,29,38,30.02,29.92,29,-312,0,0.00
2013-2-4,30,21,16,14,9,3,73,60,43,30.03,29.88,40,23,0,0.00
2013-2-5,34,26,20,21,16,13,76,66,55,30.07,29.89,36,20,0,0.00
2013-2-6,30,24,15,23,17,11,90,74,58,30.06,29.75,32,11,0,0.00
2013-2-7,30,21,12,12,0,-9,88,48,21,30.25,30.03,29,18,0,0.00
2013-2-8,36,27,18,10,2,-9,52,34,21,30.07,29.64,28,13,0,0.00
2013-2-9,24,17,10,19,14,7,92,86,48,29.65,29.45,15,4,0,0.00
2013-2-10,13,8,3,11,6,0,90,88,86,30.18,29.66,11,2,0,0.00
2013-2-11,15,6,1,10,2,-3,87,83,76,30.27,30.18,24,6,0,0.06
2013-2-12,16,7,0,5,-2,-100,88,74,59,30.37,30.22,28,-2,0,0.06
2013-2-13,20,14,8,15,11,5,91,87,79,30.35,30.13,35,23,0,0.00
2013-2-14,16,13,9,14,11,6,91,90,88,30.36,30.13,22,9,0,0.00
2013-2-15,16,12,8,13,9,6,95,86,70,30.52,30.34,32,12,0,0.00
2013-2-16,31,22,14,15,10,8,87,63,42,30.46,30.05,38,22,0,0.00
2013-2-17,31,22,10,13,7,1,88,55,33,30.05,29.62,36,18,0,0.00
2013-2-18,17,11,6,7,4,-2,88,75,53,30.22,29.75,31,14,0,0.00
2013-2-19,33,22,12,2,-6,-15,61,30,17,30.22,29.76,29,15,0,0.00
2013-2-20,35,25,13,13,4,-5,91,46,27,29.75,29.47,14,6,0,0.00
2013-2-21,18,12,8,15,9,5,91,88,85,29.99,29.52,18,6,0,0.04
2013-2-22,15,9,6,12,5,3,99,84,67,30.11,29.96,34,14,0,0.04
2013-2-23,23,14,6,16,9,2,92,81,67,29.98,29.80,42,22,0,0.00
2013-2-24,14,10,5,12,8,2,99,89,87,30.25,29.82,11,5,0,0.00
2013-2-25,22,12,4,10,5,0,88,75,55,30.27,30.01,27,17,0,0.00
2013-2-26,14,11,7,10,7,4,89,85,70,30.33,29.93,25,9,0,0.00
2013-2-27,16,8,4,8,3,0,88,79,51,30.51,30.33,24,12,0,0.00
2013-2-28,19,12,5,13,6,0,91,78,60,30.52,30.43,32,18,0,0.00
2013-3-1,28,20,14,22,17,12,93,87,67,30.53,30.43,26,15,0,0.00
2013-3-2,36,28,21,24,20,17,93,74,56,30.44,30.01,32,20,0,0.00
2013-3-3,33,29,25,27,21,16,92,73,55,30.01,29.55,29,17,0,0.00
2013-3-4,25,18,11,20,13,1,91,83,56,29.93,29.57,23,12,0,0.00
2013-3-6,41,36,32,14,12,10,46,37,30,29.86,29.67,43,19,0,0.00
2013-3-7,43,36,31,17,12,5,50,38,27,29.83,29.66,35,16,0,0.00
2013-3-8,43,34,25,23,13,5,93,46,28,29.80,29.50,30,13,0,0.00
2013-3-9,26,18,10,22,16,8,100,91,86,30.15,29.46,14,7,0,0.00
2013-3-10,31,18,8,25,14,6,90,83,69,30.38,30.15,28,8,0,0.01
2013-3-11,28,22,18,22,17,12,93,83,70,30.16,29.92,31,15,0,0.01
2013-3-12,34,24,16,24,20,14,93,85,63,30.29,30.14,26,11,0,0.00
2013-3-13,40,30,24,25,20,-100,88,73,50,30.30,30.19,28,-1,0,0.00
2013-3-14,46,38,30,22,20,15,64,50,30,30.30,30.04,28,16,0,0.00
2013-3-15,47,40,32,26,21,16,79,48,35,30.02,29.72,26,15,0,0.00
2013-3-16,38,32,28,25,18,4,86,57,33,29.77,29.67,18,11,0,0.00
2013-3-17,29,22,9,22,12,-2,92,65,42,29.80,29.44,35,17,0,0.00
2013-3-18,21,14,7,18,7,0,92,73,59,30.09,29.80,27,15,0,0.00
2013-3-19,29,20,10,6,-3,-12,76,41,19,30.34,30.04,30,13,0,0.00
2013-3-20,36,26,18,24,7,-12,90,49,24,30.33,29.77,30,17,0,0.00
2013-3-21,29,22,12,25,18,7,93,83,57,29.81,29.51,30,18,0,0.00
2013-3-22,19,12,8,9,5,0,89,72,49,30.00,29.79,23,10,0,0.00
2013-3-23,8,4,1,5,1,-3,87,86,85,30.38,29.98,13,6,0,0.00
2013-3-24,10,4,0,7,1,-3,88,86,85,30.46,30.31,16,6,0,0.00
2013-3-25,19,9,0,13,2,-8,87,75,37,30.55,30.38,22,9,0,0.00
2013-3-26,34,23,13,22,13,2,86,66,54,30.38,30.04,28,14,0,0.00
2013-3-27,38,30,23,25,21,18,94,73,46,30.06,29.98,17,9,0,0.01
2013-3-28,43,35,28,24,20,14,76,57,33,30.04,29.99,16,8,0,0.00
2013-3-29,41,34,28,31,25,22,90,69,51,30.04,29.97,18,11,0,0.00
2013-3-30,41,32,27,28,22,15,80,68,49,30.12,29.97,28,11,0,0.00
2013-3-31,46,34,24,22,17,10,90,53,24,30.10,29.95,29,14,0,0.00
2013-4-1,42,34,26,29,21,14,95,62,37,29.96,29.79,16,6,0,0.00
2013-4-2,30,27,25,29,26,24,96,95,94,30.07,29.83,11,2,0,0.04
2013-4-3,46,32,24,28,22,13,95,71,34,30.16,30.05,18,5,0,0.03
2013-4-4,47,37,28,27,24,18,93,64,32,30.08,29.89,22,13,0,0.00
2013-4-5,46,37,27,32,23,18,95,59,36,29.89,29.53,32,15,0,0.00
2013-4-6,38,30,24,27,23,20,95,75,51,29.89,29.69,24,12,0,0.00
2013-4-7,37,29,25,29,26,23,96,87,61,29.79,29.63,31,16,0,0.00
2013-4-8,44,26,9,28,17,-100,94,73,48,29.66,29.37,24,-14,0,0.00
2013-4-9,7,2,-4,4,-2,-7,88,86,83,30.41,29.65,13,5,0,0.00
2013-4-10,19,9,-3,17,6,-7,92,87,82,30.46,30.14,24,6,0,0.01
2013-4-11,30,25,16,25,21,14,94,87,74,30.14,29.89,24,10,0,0.00
2013-4-12,36,28,22,24,19,12,94,71,41,29.93,29.83,24,12,0,0.00
2013-4-13,37,30,19,28,16,-100,95,63,38,29.83,29.29,47,-2,0,0.00
2013-4-14,21,15,10,17,0,-100,92,65,45,29.87,29.36,30,-51,0,0.00
2013-4-15,22,15,10,21,13,8,93,90,77,30.00,29.76,11,4,0,0.09
2013-4-16,30,18,8,24,15,5,93,89,73,30.02,29.81,33,7,0,0.03
2013-4-17,13,9,3,11,6,0,90,89,87,30.30,29.89,19,8,0,0.00
2013-4-18,15,8,0,12,5,-3,91,88,86,30.47,30.30,26,11,0,0.00
2013-4-19,28,20,12,21,15,10,93,83,66,30.45,30.00,30,20,0,0.01
2013-4-20,34,27,22,26,24,20,95,88,66,30.03,29.92,26,13,0,0.04
2013-4-21,36,29,23,26,21,16,95,76,49,30.07,29.91,26,13,0,0.00
2013-4-22,27,18,8,25,16,5,95,92,89,30.19,29.84,19,8,0,0.00
2013-4-23,23,13,4,22,10,1,94,88,76,30.37,30.18,15,5,0,0.06
2013-4-24,32,23,14,11,8,5,78,55,36,30.36,30.24,26,13,0,0.00
2013-4-25,42,32,23,14,9,3,49,38,28,30.22,29.97,29,14,0,0.00
2013-4-26,47,39,31,19,11,2,39,32,25,30.13,30.00,11,4,0,0.00
2013-4-27,49,41,33,21,14,9,45,34,26,30.09,29.89,23,12,0,0.00
2013-4-28,52,43,35,31,24,17,74,48,33,29.89,29.71,29,14,0,0.00
2013-4-29,52,43,35,29,22,14,76,46,27,29.75,29.45,31,17,0,0.00
2013-4-30,45,37,30,31,27,22,95,68,45,29.52,29.40,26,10,0,0.00
2013-5-1,17,13,10,16,11,8,93,91,90,30.67,30.25,10,5,0,0.00
2013-5-2,28,19,8,25,15,6,96,85,51,30.86,30.56,16,4,0,0.16
2013-5-3,45,34,24,26,15,8,69,48,32,30.56,30.02,22,8,0,0.00
2013-5-4,41,33,28,28,24,20,87,70,55,30.06,29.93,12,4,0,0.00
2013-5-5,44,34,26,32,26,20,95,73,48,30.06,29.97,20,5,0,0.00
2013-5-6,47,40,34,34,29,24,84,65,52,29.97,29.78,17,5,0,0.00
2013-5-7,48,38,32,34,31,27,95,78,46,29.87,29.75,16,8,0,0.00
2013-5-8,42,36,33,34,32,29,96,86,68,29.98,29.82,15,5,0,0.06
2013-5-9,44,35,31,37,32,30,97,91,59,30.11,29.98,12,4,0,0.35
2013-5-10,47,38,31,34,25,-100,96,66,41,30.22,30.08,12,-16,0,0.05
2013-5-11,52,42,34,32,26,17,82,56,33,30.23,30.09,11,5,0,0.00
2013-5-12,59,49,39,30,27,24,66,45,30,30.10,29.93,15,8,0,0.00
2013-5-13,66,56,47,33,30,26,51,39,25,29.94,29.73,17,9,0,0.00
2013-5-14,66,56,49,33,29,27,55,37,23,29.73,29.58,24,10,0,0.00
2013-5-15,61,49,43,41,35,30,86,61,31,29.68,29.60,22,8,0,0.23
2013-5-16,61,48,41,38,30,-100,87,57,26,29.68,29.56,23,1,0,0.00
2013-5-17,62,52,46,34,22,13,63,34,17,29.64,29.54,27,15,0,0.00
2013-5-18,50,41,32,34,27,13,95,62,23,29.65,29.54,25,12,0,0.01
2013-5-19,44,35,30,33,30,28,96,83,61,29.80,29.64,24,12,0,0.00
2013-5-20,40,33,30,38,30,23,97,88,72,29.98,29.76,17,6,0,0.04
2013-5-21,49,37,26,30,26,23,92,69,43,30.00,29.86,17,7,0,0.00
2013-5-22,58,46,39,36,30,25,89,55,35,29.86,29.63,23,7,0,0.00
2013-5-23,64,49,39,43,34,18,89,61,17,29.71,29.56,35,11,0,0.00
2013-5-24,62,52,38,28,20,12,56,29,18,29.75,29.56,28,13,0,0.00
2013-5-25,64,55,47,24,14,8,36,21,12,29.70,29.61,27,14,0,0.00
2013-5-26,64,56,49,20,15,10,28,20,13,29.62,29.53,21,11,0,0.00
2013-5-27,60,52,46,24,18,12,39,27,21,29.54,29.47,28,12,0,0.00
2013-5-28,57,48,40,33,22,10,77,37,25,29.54,29.34,27,9,0,0.00
2013-5-29,43,36,32,36,32,27,96,83,59,29.59,29.33,27,11,0,0.01
2013-5-30,44,36,30,30,23,17,95,63,34,29.76,29.53,35,19,0,0.00
2013-5-31,45,37,28,27,19,-100,68,51,36,29.99,29.70,32,6,0,0.00
2013-6-1,51,40,31,33,30,26,89,68,42,30.11,29.99,11,3,0,0.00
2013-6-2,66,53,41,30,25,16,64,37,18,30.04,29.53,24,11,0,0.00
2013-6-3,64,54,45,33,21,9,42,28,17,29.64,29.39,25,14,0,0.00
2013-6-4,63,47,35,39,22,12,95,43,18,29.85,29.63,21,9,0,0.00
2013-6-5,60,44,34,39,32,20,97,69,22,29.94,29.82,10,3,0,0.00
2013-6-6,61,50,-13,33,21,-100,60,37,29,29.90,29.78,14,-27,0,0.00
2013-6-7,64,53,40,40,33,28,78,50,26,29.80,29.53,15,5,0,0.00
2013-6-8,63,52,42,41,32,22,92,48,27,29.73,29.43,24,7,0,0.00
2013-6-9,72,60,47,33,29,22,44,32,20,29.76,29.57,26,9,0,0.00
2013-6-10,74,65,57,31,28,25,37,26,17,29.57,29.46,24,13,0,0.00
2013-6-11,69,62,53,28,21,12,29,21,13,29.63,29.41,31,19,0,0.00
2013-6-12,72,60,48,28,24,19,39,26,15,29.79,29.64,22,9,0,0.00
2013-6-18,51,49,47,41,40,39,75,70,64,29.57,29.55,16,12,0,0.04
2013-6-19,70,60,49,39,19,7,70,25,9,29.55,29.41,29,15,0,0.00
2013-6-20,69,57,43,27,18,9,34,22,12,29.60,29.43,28,8,0,0.00
2013-6-21,69,60,53,28,16,10,37,19,12,29.58,29.51,30,14,0,0.00
2013-6-22,66,58,49,34,21,13,54,25,17,29.53,29.45,29,13,0,0.00
2013-6-24,68,62,54,26,20,13,35,20,13,29.49,29.43,25,14,0,0.00
2013-6-25,66,56,45,36,32,27,61,42,30,29.73,29.46,26,13,0,0.00
2013-6-26,76,64,54,35,33,28,47,33,21,29.79,29.72,18,11,0,0.00
2013-6-27,80,67,56,34,30,25,43,27,15,29.84,29.74,14,6,0,0.00
2013-6-28,80,67,58,47,32,-100,68,31,17,29.78,29.66,21,-16,0,0.00
2013-6-29,76,64,56,48,44,34,66,50,22,29.73,29.64,9,3,0,0.02
2013-6-30,71,58,50,52,46,42,87,66,38,29.82,29.68,14,4,0,0.12
2013-7-1,65,58,49,48,44,40,87,62,46,29.88,29.82,14,3,0,0.00
2013-7-2,70,59,50,44,40,36,79,51,28,29.88,29.76,8,2,0,0.00
2013-7-3,75,60,52,47,38,31,72,47,22,29.75,29.59,24,5,0,0.06
2013-7-4,72,60,51,46,41,35,71,52,30,29.67,29.57,13,5,0,0.00
2013-7-5,70,58,51,50,46,41,80,64,43,29.56,29.48,21,8,0,0.03
2013-7-6,72,59,50,45,41,36,81,55,27,29.66,29.52,21,9,0,0.04
2013-7-7,76,62,50,45,40,31,77,48,22,29.69,29.59,24,8,0,0.01
2013-7-8,69,60,51,49,41,35,74,52,32,29.76,29.62,24,12,0,0.01
2013-7-9,73,63,56,42,36,27,49,38,19,29.84,29.75,20,8,0,0.00
2013-7-10,79,66,56,49,38,27,65,37,16,29.80,29.60,14,5,0,0.00
2013-7-11,79,69,60,47,37,27,62,34,15,29.61,29.41,39,9,0,0.01
2013-7-12,73,59,52,52,46,41,92,66,35,29.66,29.40,24,14,0,0.15
2013-7-13,70,58,51,52,48,43,96,72,44,29.79,29.67,15,9,0,0.12
2013-7-14,64,57,51,54,50,46,94,79,61,29.83,29.75,13,4,0,0.00
2013-7-15,71,57,50,53,50,47,96,79,42,29.80,29.66,9,4,0,0.00
2013-7-16,71,60,52,49,43,37,84,56,32,29.76,29.68,15,4,0,0.00
2013-7-17,57,55,53,45,41,38,66,61,56,29.78,29.74,16,9,0,0.00
2013-8-12,63,51,46,42,34,-100,80,59,43,29.89,29.83,20,-39,0,0.00
2013-8-13,62,50,46,44,37,-100,85,65,44,29.96,29.84,19,-14,0,0.04
2013-8-14,66,52,45,42,30,-100,77,50,30,29.97,29.88,15,-38,0,0.01
2013-8-15,57,54,52,30,29,27,42,38,33,29.88,29.82,17,11,0,0.00
2013-10-10,32,30,29,30,29,28,96,95,92,29.39,29.29,27,16,0,0.01
2013-10-11,31,28,26,30,23,-100,97,93,95,30.05,29.32,25,-19,0,0.01
2013-10-12,41,32,26,28,25,22,95,76,55,30.13,30.05,21,11,0,0.02
2013-10-13,51,40,33,33,24,-100,90,57,35,30.08,29.68,23,-1,0,0.02
2013-10-14,35,28,19,32,26,18,96,95,89,30.14,29.62,18,6,0,0.01
2013-10-15,24,19,16,23,18,14,94,93,92,30.32,30.14,10,2,0,0.01
2013-10-16,30,23,17,25,19,15,94,86,72,30.27,30.13,26,13,0,0.00
2013-10-17,32,26,20,24,20,17,94,80,62,30.14,30.00,28,11,0,0.01
2013-10-18,26,20,15,18,16,13,93,85,66,30.28,30.04,28,9,0,0.00
2013-10-19,39,30,22,22,18,16,77,62,47,30.27,29.91,37,22,0,0.00
2013-10-20,32,27,22,28,23,20,95,85,61,30.09,29.84,29,8,0,0.00
2013-10-21,37,28,21,25,22,19,94,77,58,30.27,30.09,24,12,0,0.00
2013-10-22,36,31,30,24,22,22,73,70,63,30.22,30.13,29,18,0,0.00
2013-10-23,53,40,33,27,22,-100,63,49,31,30.04,29.95,20,-4,0,0.00
2013-10-24,52,42,36,30,25,21,69,52,30,30.04,29.97,16,6,0,0.00
2013-10-25,52,42,36,25,21,17,64,45,28,30.06,29.98,17,8,0,0.00
2013-10-26,51,40,34,26,23,18,70,52,33,30.14,29.98,21,5,0,0.00
2013-10-27,36,34,33,21,20,19,58,56,53,29.98,29.86,25,20,0,0.00
2013-11-1,30,25,22,23,15,-100,94,73,60,30.26,0.00,28,-20,0,0.00
2013-11-2,45,34,25,20,14,5,80,48,20,30.24,29.67,34,23,0,0.00
2013-11-3,41,30,12,25,13,3,90,55,23,29.73,29.40,39,18,0,0.00
2013-11-4,27,16,9,15,9,0,90,74,43,30.08,29.73,25,12,0,0.00
2013-11-5,16,11,7,12,6,3,90,82,68,30.34,30.04,33,15,0,0.00
2013-11-6,27,18,10,22,14,5,92,84,74,30.49,30.33,36,20,0,0.00
2013-11-7,37,29,21,24,21,18,88,71,57,30.50,29.97,30,18,0,0.00
2013-11-8,40,34,30,22,18,14,69,53,44,29.95,29.72,50,21,0,0.00
2013-11-9,46,35,28,22,18,-100,70,52,36,30.13,29.91,28,4,0,0.00
2013-11-10,45,37,31,19,17,12,55,45,26,30.13,30.06,22,14,0,0.00
2013-11-11,46,36,25,25,18,17,100,52,33,30.38,30.06,25,12,0,0.00
2013-11-12,47,36,25,24,18,5,93,50,26,30.46,30.28,23,10,0,0.00
2013-11-13,43,36,28,26,13,6,89,39,26,30.27,29.90,25,16,0,0.00
2013-11-14,37,30,24,26,19,9,94,67,39,29.93,29.67,29,16,0,0.00
2013-11-15,36,28,22,25,17,11,100,64,43,29.67,29.37,42,17,0,0.00
2013-11-16,25,21,17,22,19,15,94,91,78,29.53,29.24,47,20,0,0.00
2013-11-17,27,19,11,19,15,9,92,84,67,30.19,29.53,35,18,0,0.00
2013-11-18,36,29,22,20,17,15,85,64,43,30.25,30.00,38,23,0,0.00
2013-11-19,35,30,26,26,20,11,95,69,41,30.00,29.67,34,18,0,0.00
2013-11-20,32,28,24,24,22,20,94,81,65,29.87,29.73,31,15,0,0.00
2013-11-21,26,9,2,25,6,-1,100,88,79,30.68,29.84,10,4,0,0.00
2013-11-22,29,19,6,-2,-19,-38,58,20,6,30.84,30.59,12,4,0,0.01
2013-11-23,34,22,14,22,13,-4,86,70,39,30.58,30.25,12,5,0,0.00
2013-11-24,39,30,22,25,19,0,78,63,37,30.23,29.87,17,6,0,0.00
2013-11-25,28,24,20,19,15,7,78,69,52,30.31,29.97,11,5,0,0.00
2013-11-26,33,24,17,19,15,13,87,70,48,30.46,30.30,18,9,0,0.00
2013-11-27,37,30,23,16,14,12,66,52,40,30.31,30.11,26,17,0,0.00
2013-11-28,45,35,30,17,14,11,56,44,29,30.10,29.96,21,10,0,0.00
2013-11-29,37,30,25,19,16,11,74,59,44,30.14,29.95,31,21,0,0.00
2013-11-30,33,26,23,19,16,15,80,67,48,30.18,30.09,35,20,0,0.00
2013-12-1,23,23,23,18,18,17,80,80,79,30.14,30.09,26,23,0,0.00